Weather History for KGYY - March, 2014

Change the Weather History Date:

Wednesday, March 12, 2014

  Actual Average Record
Temperature  
Mean Temperature 28 °F -  
Max Temperature 34 °F 45 °F 70 °F (1977)
Min Temperature 21 °F 31 °F 8 °F (1998)
Degree Days  
Heating Degree Days 38    
Moisture  
Dew Point 22 °F    
Average Humidity 79    
Maximum Humidity 100    
Minimum Humidity 61    
Precipitation  
Precipitation 0.39 in - - ()
Sea Level Pressure  
Sea Level Pressure 29.88 in    
Wind  
Wind Speed 15 mph (North)    
Max Wind Speed 22 mph    
Max Gust Speed 34 mph    
Visibility 7 miles    
Events Snow    
Averages and records for this station are not official NWS values.
T = Trace of Precipitation, MM = Missing Value Source: NWS Daily Summary

Daily Weather History Graph

Daily Weather History Graph

Search for Another Location

Airport or City:

Trip Planner

Search our weather history database for the weather conditions in past years. The results will help you decide how hot, cold, wet, or windy it might be!

Date:

Astronomy

Mar. 12, 2014 Rise Set
Actual Time 7:06 AM CDT 6:52 PM CDT
Civil Twilight 6:38 AM CDT 7:20 PM CDT
Nautical Twilight 6:06 AM CDT 7:52 PM CDT
Astronomical Twilight 5:34 AM CDT 8:25 PM CDT
Moon 3:20 PM CDT (3/12) 4:40 AM CDT (3/12)
Length of Visible Light 12h 41m
Length of Day
11h 46m
Waxing Gibbous, 85% of the Moon is Illuminated
Mar 12
Waxing Gibbous
Mar 16
Full
Mar 23
Last Quarter
Mar 30
New
Apr 7
First Quarter

Hourly Weather History & Observations

Time (CDT) Temp. Windchill Dew Point Humidity Pressure Visibility Wind Dir Wind Speed Gust Speed Precip Events Conditions
12:15 AM 34.0 °F 25.5 °F 32.0 °F 92% 29.70 in 1.5 mi NNE 11.5 mph - 0.03 in Snow Light Snow
12:35 AM 34.0 °F 24.6 °F 32.2 °F 93% 29.69 in 1.8 mi NNE 13.8 mph 18.4 mph 0.08 in Snow Light Snow
12:55 AM 34.0 °F 24.2 °F 32.4 °F 94% 29.67 in 1.8 mi NNE 15.0 mph 19.6 mph 0.13 in Snow Light Snow
1:15 AM 34.0 °F 25.0 °F 32.4 °F 94% 29.67 in 1.5 mi North 12.7 mph - 0.03 in Snow Light Snow
1:35 AM 34.0 °F 24.6 °F 32.5 °F 94% 29.65 in 1.2 mi NNE 13.8 mph 20.7 mph 0.07 in Snow Light Snow
1:55 AM 34.0 °F 23.8 °F 32.5 °F 94% 29.65 in 1.2 mi NNE 16.1 mph 21.9 mph 0.11 in Snow Light Snow
2:15 AM 34.0 °F 24.6 °F 32.5 °F 94% 29.65 in 1.5 mi NNE 13.8 mph 20.7 mph 0.01 in Snow Light Snow
2:35 AM 34.0 °F 25.0 °F 32.5 °F 94% 29.67 in 1.5 mi NNE 12.7 mph 21.9 mph 0.04 in Snow Light Snow
2:55 AM 33.8 °F 24.3 °F 32.4 °F 94% 29.68 in 1.2 mi North 13.8 mph 20.7 mph 0.06 in Snow Light Snow
3:15 AM 33.8 °F 23.2 °F 32.4 °F 94% 29.67 in 0.8 mi North 17.3 mph 21.9 mph 0.02 in Snow Snow
3:35 AM 33.8 °F 22.5 °F 32.2 °F 94% 29.66 in 0.5 mi North 19.6 mph 24.2 mph 0.06 in Snow Snow
3:55 AM 33.8 °F 23.9 °F 32.2 °F 94% 29.69 in 0.8 mi North 15.0 mph 20.7 mph 0.08 in Snow Snow
4:15 AM 33.3 °F 21.8 °F 32.0 °F 95% 29.69 in 1.0 mi North 19.6 mph 24.2 mph 0.01 in Snow Snow
4:45 AM 32.0 °F 19.8 °F 32.0 °F 100% 29.70 in 0.5 mi North 20.7 mph 33.4 mph N/A Snow Snow
5:45 AM 30.2 °F 18.5 °F 30.2 °F 100% 29.70 in 0.8 mi North 17.3 mph 33.4 mph N/A Snow Snow
6:45 AM 30.2 °F 18.5 °F 28.4 °F 93% 29.73 in 1.5 mi North 17.3 mph 28.8 mph N/A   Overcast
7:45 AM 30.2 °F 20.8 °F 26.6 °F 86% 29.76 in 5.0 mi North 11.5 mph 25.3 mph N/A Snow Light Snow
8:45 AM 30.2 °F 20.8 °F 26.6 °F 86% 29.80 in 5.0 mi North 11.5 mph 25.3 mph N/A Snow Light Snow
9:45 AM 30.2 °F 17.1 °F 24.8 °F 80% 29.82 in 4.0 mi North 21.9 mph 34.5 mph N/A   Haze
10:45 AM 30.2 °F 18.5 °F 23.0 °F 75% 29.86 in 10.0 mi North 17.3 mph 34.5 mph N/A   Mostly Cloudy
11:45 AM 30.2 °F 17.4 °F 23.0 °F 75% 29.88 in 10.0 mi North 20.7 mph 34.5 mph N/A   Overcast
12:45 PM 26.6 °F 13.8 °F 19.4 °F 74% 29.93 in 10.0 mi NNW 17.3 mph 34.5 mph N/A   Overcast
1:45 PM 24.8 °F 11.5 °F 19.4 °F 80% 29.95 in 10.0 mi NNW 17.3 mph 34.5 mph N/A   Overcast
2:45 PM 24.8 °F 12.9 °F 17.6 °F 74% 29.97 in 10.0 mi NNW 13.8 mph 32.2 mph N/A   Overcast
3:45 PM 24.8 °F 11.5 °F 15.8 °F 69% 30.00 in 20.0 mi NNW 17.3 mph 33.4 mph N/A   Scattered Clouds
4:45 PM 24.8 °F 11.5 °F 14.0 °F 64% 30.02 in 20.0 mi North 17.3 mph - N/A   Partly Cloudy
5:45 PM 23.0 °F 9.2 °F 14.0 °F 68% 30.05 in 20.0 mi North 17.3 mph - N/A   Partly Cloudy
6:45 PM 23.0 °F 9.2 °F 12.2 °F 63% 30.08 in 10.0 mi North 17.3 mph - N/A   Clear
7:45 PM 23.0 °F 9.2 °F 12.2 °F 63% 30.09 in 10.0 mi North 17.3 mph - N/A   Clear
8:45 PM 23.0 °F 11.7 °F 12.2 °F 63% 30.10 in 10.0 mi North 11.5 mph 23.0 mph N/A   Partly Cloudy
9:15 PM 22.1 °F 10.6 °F 11.1 °F 63% 30.11 in 10.0 mi North 11.5 mph 19.6 mph N/A   Clear
9:35 PM 22.1 °F 8.0 °F 11.1 °F 63% 30.11 in 10.0 mi North 17.3 mph - N/A   Scattered Clouds
9:45 PM 21.2 °F 10.1 °F 12.2 °F 68% 30.11 in 10.0 mi NNW 10.4 mph 23.0 mph N/A   Partly Cloudy
9:55 PM 22.1 °F 10.6 °F 10.6 °F 61% 30.11 in 10.0 mi North 11.5 mph 18.4 mph N/A   Clear
10:15 PM 22.1 °F 9.5 °F 10.8 °F 62% 30.11 in 10.0 mi NNW 13.8 mph 21.9 mph N/A   Clear
10:35 PM 22.3 °F 10.8 °F 12.2 °F 65% 30.11 in 10.0 mi North 11.5 mph 16.1 mph N/A   Clear
10:55 PM 21.9 °F 11.7 °F 11.5 °F 64% 30.11 in 10.0 mi North 9.2 mph - N/A   Clear
11:15 PM 21.9 °F 10.4 °F 11.3 °F 64% 30.11 in 10.0 mi North 11.5 mph - N/A   Clear
11:35 PM 21.9 °F 11.0 °F 11.3 °F 64% 30.11 in 10.0 mi North 10.4 mph - N/A   Clear
11:55 PM 22.1 °F 11.3 °F 11.3 °F 63% 30.11 in 10.0 mi North 10.4 mph - N/A   Clear